timestamp,waterbody_station,lease,latitude,longitude,deployment_start_date,deployment_end_date,sensor,depth,mooring,Temperature_degrees Celsius,Dissolved Oxygen_percent saturation,Salinity_practical salinity units
2019-06-13T00:00:00,Lobster Bay-Old Point Channel,,43.721,-65.8457,2018-03-20,2019-06-15,HOBO-20291436,5.0,float,12.122,,
2019-06-13T00:15:00,Lobster Bay-Old Point Channel,,43.721,-65.8457,2018-03-20,2019-06-15,HOBO-20291436,5.0,float,11.953,,
2019-06-13T00:30:00,Lobster Bay-Old Point Channel,,43.721,-65.8457,2018-03-20,2019-06-15,HOBO-20291436,5.0,float,12.703,,
2019-06-13T00:45:00,Lobster Bay-Old Point Channel,,43.721,-65.8457,2018-03-20,2019-06-15,HOBO-20291436,5.0,float,12.63,,
2019-06-13T01:00:00,Lobster Bay-Old Point Channel,,43.721,-65.8457,2018-03-20,2019-06-15,HOBO-20291436,5.0,float,12.509,,
2019-06-13T01:15:00,Lobster Bay-Old Point Channel,,43.721,-65.8457,2018-03-20,2019-06-15,HOBO-20291436,5.0,float,12.461,,
2019-06-13T01:30:00,Lobster Bay-Old Point Channel,,43.721,-65.8457,2018-03-20,2019-06-15,HOBO-20291436,5.0,float,12.461,,
2019-06-13T01:45:00,Lobster Bay-Old Point Channel,,43.721,-65.8457,2018-03-20,2019-06-15,HOBO-20291436,5.0,float,12.509,,
2019-06-13T02:00:00,Lobster Bay-Old Point Channel,,43.721,-65.8457,2018-03-20,2019-06-15,HOBO-20291436,5.0,float,12.461,,
2019-06-13T02:15:00,Lobster Bay-Old Point Channel,,43.721,-65.8457,2018-03-20,2019-06-15,HOBO-20291436,5.0,float,12.437,,
2019-06-13T02:30:00,Lobster Bay-Old Point Channel,,43.721,-65.8457,2018-03-20,2019-06-15,HOBO-20291436,5.0,float,12.364,,
2019-06-13T02:45:00,Lobster Bay-Old Point Channel,,43.721,-65.8457,2018-03-20,2019-06-15,HOBO-20291436,5.0,float,12.34,,
2019-06-13T03:00:00,Lobster Bay-Old Point Channel,,43.721,-65.8457,2018-03-20,2019-06-15,HOBO-20291436,5.0,float,12.074,,
2019-06-13T03:15:00,Lobster Bay-Old Point Channel,,43.721,-65.8457,2018-03-20,2019-06-15,HOBO-20291436,5.0,float,12.098,,
2019-06-13T03:30:00,Lobster Bay-Old Point Channel,,43.721,-65.8457,2018-03-20,2019-06-15,HOBO-20291436,5.0,float,12.05,,
2019-06-13T03:45:00,Lobster Bay-Old Point Channel,,43.721,-65.8457,2018-03-20,2019-06-15,HOBO-20291436,5.0,float,12.025,,
2019-06-13T04:00:00,Lobster Bay-Old Point Channel,,43.721,-65.8457,2018-03-20,2019-06-15,HOBO-20291436,5.0,float,11.759,,
2019-06-13T04:15:00,Lobster Bay-Old Point Channel,,43.721,-65.8457,2018-03-20,2019-06-15,HOBO-20291436,5.0,float,11.856,,
2019-06-13T04:30:00,Lobster Bay-Old Point Channel,,43.721,-65.8457,2018-03-20,2019-06-15,HOBO-20291436,5.0,float,11.734,,
2019-06-13T04:45:00,Lobster Bay-Old Point Channel,,43.721,-65.8457,2018-03-20,2019-06-15,HOBO-20291436,5.0,float,11.467,,
2019-06-13T05:00:00,Lobster Bay-Old Point Channel,,43.721,-65.8457,2018-03-20,2019-06-15,HOBO-20291436,5.0,float,11.613,,
2019-06-13T05:15:00,Lobster Bay-Old Point Channel,,43.721,-65.8457,2018-03-20,2019-06-15,HOBO-20291436,5.0,float,11.613,,
2019-06-13T05:30:00,Lobster Bay-Old Point Channel,,43.721,-65.8457,2018-03-20,2019-06-15,HOBO-20291436,5.0,float,11.686,,
2019-06-13T05:45:00,Lobster Bay-Old Point Channel,,43.721,-65.8457,2018-03-20,2019-06-15,HOBO-20291436,5.0,float,11.516,,
2019-06-13T06:00:00,Lobster Bay-Old Point Channel,,43.721,-65.8457,2018-03-20,2019-06-15,HOBO-20291436,5.0,float,11.394,,
2019-06-13T06:15:00,Lobster Bay-Old Point Channel,,43.721,-65.8457,2018-03-20,2019-06-15,HOBO-20291436,5.0,float,11.516,,
2019-06-13T06:30:00,Lobster Bay-Old Point Channel,,43.721,-65.8457,2018-03-20,2019-06-15,HOBO-20291436,5.0,float,11.71,,
2019-06-13T06:45:00,Lobster Bay-Old Point Channel,,43.721,-65.8457,2018-03-20,2019-06-15,HOBO-20291436,5.0,float,11.686,,
2019-06-13T07:00:00,Lobster Bay-Old Point Channel,,43.721,-65.8457,2018-03-20,2019-06-15,HOBO-20291436,5.0,float,11.589,,
2019-06-13T07:15:00,Lobster Bay-Old Point Channel,,43.721,-65.8457,2018-03-20,2019-06-15,HOBO-20291436,5.0,float,11.516,,
2019-06-13T07:30:00,Lobster Bay-Old Point Channel,,43.721,-65.8457,2018-03-20,2019-06-15,HOBO-20291436,5.0,float,11.492,,
2019-06-13T07:45:00,Lobster Bay-Old Point Channel,,43.721,-65.8457,2018-03-20,2019-06-15,HOBO-20291436,5.0,float,11.686,,
2019-06-13T08:00:00,Lobster Bay-Old Point Channel,,43.721,-65.8457,2018-03-20,2019-06-15,HOBO-20291436,5.0,float,11.783,,
2019-06-13T08:15:00,Lobster Bay-Old Point Channel,,43.721,-65.8457,2018-03-20,2019-06-15,HOBO-20291436,5.0,float,11.613,,
2019-06-13T08:30:00,Lobster Bay-Old Point Channel,,43.721,-65.8457,2018-03-20,2019-06-15,HOBO-20291436,5.0,float,11.662,,
2019-06-13T08:45:00,Lobster Bay-Old Point Channel,,43.721,-65.8457,2018-03-20,2019-06-15,HOBO-20291436,5.0,float,11.175,,
2019-06-13T09:00:00,Lobster Bay-Old Point Channel,,43.721,-65.8457,2018-03-20,2019-06-15,HOBO-20291436,5.0,float,10.932,,
2019-06-13T09:15:00,Lobster Bay-Old Point Channel,,43.721,-65.8457,2018-03-20,2019-06-15,HOBO-20291436,5.0,float,10.761,,
2019-06-13T09:30:00,Lobster Bay-Old Point Channel,,43.721,-65.8457,2018-03-20,2019-06-15,HOBO-20291436,5.0,float,10.761,,
2019-06-13T09:45:00,Lobster Bay-Old Point Channel,,43.721,-65.8457,2018-03-20,2019-06-15,HOBO-20291436,5.0,float,10.858,,
2019-06-13T10:00:00,Lobster Bay-Old Point Channel,,43.721,-65.8457,2018-03-20,2019-06-15,HOBO-20291436,5.0,float,10.663,,
2019-06-13T10:15:00,Lobster Bay-Old Point Channel,,43.721,-65.8457,2018-03-20,2019-06-15,HOBO-20291436,5.0,float,10.81,,
2019-06-13T10:30:00,Lobster Bay-Old Point Channel,,43.721,-65.8457,2018-03-20,2019-06-15,HOBO-20291436,5.0,float,10.736,,
2019-06-13T10:45:00,Lobster Bay-Old Point Channel,,43.721,-65.8457,2018-03-20,2019-06-15,HOBO-20291436,5.0,float,10.785,,
2019-06-13T11:00:00,Lobster Bay-Old Point Channel,,43.721,-65.8457,2018-03-20,2019-06-15,HOBO-20291436,5.0,float,10.883,,
2019-06-13T11:15:00,Lobster Bay-Old Point Channel,,43.721,-65.8457,2018-03-20,2019-06-15,HOBO-20291436,5.0,float,10.785,,
2019-06-13T11:30:00,Lobster Bay-Old Point Channel,,43.721,-65.8457,2018-03-20,2019-06-15,HOBO-20291436,5.0,float,10.785,,
2019-06-13T11:45:00,Lobster Bay-Old Point Channel,,43.721,-65.8457,2018-03-20,2019-06-15,HOBO-20291436,5.0,float,11.029,,
2019-06-13T12:00:00,Lobster Bay-Old Point Channel,,43.721,-65.8457,2018-03-20,2019-06-15,HOBO-20291436,5.0,float,11.029,,
2019-06-13T12:15:00,Lobster Bay-Old Point Channel,,43.721,-65.8457,2018-03-20,2019-06-15,HOBO-20291436,5.0,float,11.467,,
2019-06-13T12:30:00,Lobster Bay-Old Point Channel,,43.721,-65.8457,2018-03-20,2019-06-15,HOBO-20291436,5.0,float,11.856,,
2019-06-13T12:45:00,Lobster Bay-Old Point Channel,,43.721,-65.8457,2018-03-20,2019-06-15,HOBO-20291436,5.0,float,11.88,,
2019-06-13T13:00:00,Lobster Bay-Old Point Channel,,43.721,-65.8457,2018-03-20,2019-06-15,HOBO-20291436,5.0,float,11.88,,
2019-06-13T13:15:00,Lobster Bay-Old Point Channel,,43.721,-65.8457,2018-03-20,2019-06-15,HOBO-20291436,5.0,float,11.88,,
2019-06-13T13:30:00,Lobster Bay-Old Point Channel,,43.721,-65.8457,2018-03-20,2019-06-15,HOBO-20291436,5.0,float,11.832,,
2019-06-13T13:45:00,Lobster Bay-Old Point Channel,,43.721,-65.8457,2018-03-20,2019-06-15,HOBO-20291436,5.0,float,11.88,,
2019-06-13T14:00:00,Lobster Bay-Old Point Channel,,43.721,-65.8457,2018-03-20,2019-06-15,HOBO-20291436,5.0,float,11.832,,
2019-06-13T14:15:00,Lobster Bay-Old Point Channel,,43.721,-65.8457,2018-03-20,2019-06-15,HOBO-20291436,5.0,float,11.856,,
2019-06-13T14:30:00,Lobster Bay-Old Point Channel,,43.721,-65.8457,2018-03-20,2019-06-15,HOBO-20291436,5.0,float,11.832,,
2019-06-13T14:45:00,Lobster Bay-Old Point Channel,,43.721,-65.8457,2018-03-20,2019-06-15,HOBO-20291436,5.0,float,11.977,,
2019-06-13T15:00:00,Lobster Bay-Old Point Channel,,43.721,-65.8457,2018-03-20,2019-06-15,HOBO-20291436,5.0,float,12.001,,
2019-06-13T15:15:00,Lobster Bay-Old Point Channel,,43.721,-65.8457,2018-03-20,2019-06-15,HOBO-20291436,5.0,float,11.88,,
2019-06-13T15:30:00,Lobster Bay-Old Point Channel,,43.721,-65.8457,2018-03-20,2019-06-15,HOBO-20291436,5.0,float,11.953,,
2019-06-13T15:45:00,Lobster Bay-Old Point Channel,,43.721,-65.8457,2018-03-20,2019-06-15,HOBO-20291436,5.0,float,12.001,,
2019-06-13T16:00:00,Lobster Bay-Old Point Channel,,43.721,-65.8457,2018-03-20,2019-06-15,HOBO-20291436,5.0,float,12.122,,
2019-06-13T16:15:00,Lobster Bay-Old Point Channel,,43.721,-65.8457,2018-03-20,2019-06-15,HOBO-20291436,5.0,float,12.074,,
2019-06-13T16:30:00,Lobster Bay-Old Point Channel,,43.721,-65.8457,2018-03-20,2019-06-15,HOBO-20291436,5.0,float,11.637,,
2019-06-13T16:45:00,Lobster Bay-Old Point Channel,,43.721,-65.8457,2018-03-20,2019-06-15,HOBO-20291436,5.0,float,11.734,,
2019-06-13T17:00:00,Lobster Bay-Old Point Channel,,43.721,-65.8457,2018-03-20,2019-06-15,HOBO-20291436,5.0,float,11.929,,
2019-06-13T17:15:00,Lobster Bay-Old Point Channel,,43.721,-65.8457,2018-03-20,2019-06-15,HOBO-20291436,5.0,float,11.637,,
2019-06-13T17:30:00,Lobster Bay-Old Point Channel,,43.721,-65.8457,2018-03-20,2019-06-15,HOBO-20291436,5.0,float,11.516,,
2019-06-13T17:45:00,Lobster Bay-Old Point Channel,,43.721,-65.8457,2018-03-20,2019-06-15,HOBO-20291436,5.0,float,11.565,,
2019-06-13T18:00:00,Lobster Bay-Old Point Channel,,43.721,-65.8457,2018-03-20,2019-06-15,HOBO-20291436,5.0,float,11.613,,
2019-06-13T18:15:00,Lobster Bay-Old Point Channel,,43.721,-65.8457,2018-03-20,2019-06-15,HOBO-20291436,5.0,float,11.637,,
2019-06-13T18:30:00,Lobster Bay-Old Point Channel,,43.721,-65.8457,2018-03-20,2019-06-15,HOBO-20291436,5.0,float,11.175,,
2019-06-13T18:45:00,Lobster Bay-Old Point Channel,,43.721,-65.8457,2018-03-20,2019-06-15,HOBO-20291436,5.0,float,11.078,,
2019-06-13T19:00:00,Lobster Bay-Old Point Channel,,43.721,-65.8457,2018-03-20,2019-06-15,HOBO-20291436,5.0,float,11.053,,
2019-06-13T19:15:00,Lobster Bay-Old Point Channel,,43.721,-65.8457,2018-03-20,2019-06-15,HOBO-20291436,5.0,float,11.2,,
2019-06-13T19:30:00,Lobster Bay-Old Point Channel,,43.721,-65.8457,2018-03-20,2019-06-15,HOBO-20291436,5.0,float,11.102,,
2019-06-13T19:45:00,Lobster Bay-Old Point Channel,,43.721,-65.8457,2018-03-20,2019-06-15,HOBO-20291436,5.0,float,11.904,,
2019-06-13T20:00:00,Lobster Bay-Old Point Channel,,43.721,-65.8457,2018-03-20,2019-06-15,HOBO-20291436,5.0,float,11.71,,
2019-06-13T20:15:00,Lobster Bay-Old Point Channel,,43.721,-65.8457,2018-03-20,2019-06-15,HOBO-20291436,5.0,float,12.025,,
2019-06-13T20:30:00,Lobster Bay-Old Point Channel,,43.721,-65.8457,2018-03-20,2019-06-15,HOBO-20291436,5.0,float,12.098,,
2019-06-13T20:45:00,Lobster Bay-Old Point Channel,,43.721,-65.8457,2018-03-20,2019-06-15,HOBO-20291436,5.0,float,12.05,,
2019-06-13T21:00:00,Lobster Bay-Old Point Channel,,43.721,-65.8457,2018-03-20,2019-06-15,HOBO-20291436,5.0,float,11.929,,
2019-06-13T21:15:00,Lobster Bay-Old Point Channel,,43.721,-65.8457,2018-03-20,2019-06-15,HOBO-20291436,5.0,float,11.759,,
2019-06-13T21:30:00,Lobster Bay-Old Point Channel,,43.721,-65.8457,2018-03-20,2019-06-15,HOBO-20291436,5.0,float,11.613,,
2019-06-13T21:45:00,Lobster Bay-Old Point Channel,,43.721,-65.8457,2018-03-20,2019-06-15,HOBO-20291436,5.0,float,11.71,,
2019-06-13T22:00:00,Lobster Bay-Old Point Channel,,43.721,-65.8457,2018-03-20,2019-06-15,HOBO-20291436,5.0,float,11.467,,
2019-06-13T22:15:00,Lobster Bay-Old Point Channel,,43.721,-65.8457,2018-03-20,2019-06-15,HOBO-20291436,5.0,float,11.492,,
2019-06-13T22:30:00,Lobster Bay-Old Point Channel,,43.721,-65.8457,2018-03-20,2019-06-15,HOBO-20291436,5.0,float,11.224,,
2019-06-13T22:45:00,Lobster Bay-Old Point Channel,,43.721,-65.8457,2018-03-20,2019-06-15,HOBO-20291436,5.0,float,10.98,,
2019-06-13T23:00:00,Lobster Bay-Old Point Channel,,43.721,-65.8457,2018-03-20,2019-06-15,HOBO-20291436,5.0,float,10.956,,
2019-06-13T23:15:00,Lobster Bay-Old Point Channel,,43.721,-65.8457,2018-03-20,2019-06-15,HOBO-20291436,5.0,float,10.907,,
2019-06-13T23:30:00,Lobster Bay-Old Point Channel,,43.721,-65.8457,2018-03-20,2019-06-15,HOBO-20291436,5.0,float,10.956,,
2019-06-13T23:45:00,Lobster Bay-Old Point Channel,,43.721,-65.8457,2018-03-20,2019-06-15,HOBO-20291436,5.0,float,11.2,,
